EW5037 Houma LA US current weather conditions

sailwx.info

Wind from 135 at 10 knots gusting 16

Air temperature 25.0° C
Dewpoint 14.7° C

Last reported at 2020-Apr-06 18:04 UTC.
Time now 2020-Apr-06 18:59 UTC

Location: N 29°32' W 090°40'.
View on Google Maps.

See reports from other nearby stations

  
Tides and Currents Weather Stations Pressure Air Temp Water Temp Dewpoint Dewpoint Depression Visibility Wind Speed Wind Dir Waves Ship Positions
date/time (UTC)wind fromknots sea level pressurealtimeterstation pressurevisibilityair tempwater tempwave heightnotes
2020-Apr-06 18:04 135 10 gusting 16 25.0
2020-Apr-06 17:54 135 11 gusting 14 25.6
2020-Apr-06 17:44 135 13 gusting 13 25.6
2020-Apr-06 17:34 180 10 gusting 15 25.6
2020-Apr-06 17:24 135 13 gusting 17 25.0
2020-Apr-06 17:14 135 11 gusting 14 25.0
2020-Apr-06 17:04 135 9 gusting 15 25.0
2020-Apr-06 16:54 135 6 gusting 16 25.0
2020-Apr-06 16:44 090 13 gusting 14 25.0
2020-Apr-06 16:34 135 8 gusting 14 25.0
2020-Apr-06 16:24 135 13 gusting 14 25.0
2020-Apr-06 16:14 135 7 gusting 15 24.4
2020-Apr-06 16:04 090 7 gusting 15 24.4
2020-Apr-06 15:54 090 4 gusting 14 24.4
2020-Apr-06 15:44 180 6 gusting 17 24.4
2020-Apr-06 15:34 135 11 gusting 13 23.9
2020-Apr-06 15:24 113 6 gusting 14 23.3
2020-Apr-06 15:14 090 7 gusting 15 23.3
2020-Apr-06 15:03 135 5 gusting 11 23.3
2020-Apr-06 14:53 045 4 gusting 13 22.8
2020-Apr-06 14:43 180 6 gusting 8 22.8
2020-Apr-06 14:33 090 3 gusting 9 22.8
2020-Apr-06 14:24 090 3 gusting 8 21.7
2020-Apr-06 14:13 135 5 gusting 8 21.7
2020-Apr-06 14:03 135 4 gusting 6 21.7
2020-Apr-06 13:53 135 3 gusting 6 20.6
2020-Apr-06 13:43 045 1 gusting 6 20.0
2020-Apr-06 13:33 045 3 gusting 3 19.4
2020-Apr-06 13:23 045 1 gusting 3 19.4
2020-Apr-06 13:13 090 2 gusting 4 19.4
2020-Apr-06 13:03 045 1 gusting 5 18.9
2020-Apr-06 12:53 090 3 gusting 4 18.3
2020-Apr-06 12:43 090 1 gusting 3 18.3
2020-Apr-06 12:33 090 2 gusting 5 18.3
2020-Apr-06 12:23 135 2 gusting 4 17.8
2020-Apr-06 12:13 135 1 gusting 4 17.2
2020-Apr-06 12:03 090 3 gusting 4 16.7
2020-Apr-06 11:53 045 2 gusting 4 16.7
2020-Apr-06 11:43 090 1 gusting 3 16.7
2020-Apr-06 11:33 045 1 gusting 3 16.7
2020-Apr-06 11:23 045 0 gusting 3 16.1
2020-Apr-06 11:12 023 1 gusting 2 16.1
2020-Apr-06 11:02 023 0 gusting 1 16.1
2020-Apr-06 10:52 090 16.1
2020-Apr-06 10:42 045 0 gusting 1 16.1
2020-Apr-06 10:33 068 16.1
2020-Apr-06 10:22 045 0 gusting 1 16.1
2020-Apr-06 10:12 135 1 gusting 1 15.6
2020-Apr-06 10:02 135 15.6
2020-Apr-06 09:52 135 15.6
2020-Apr-06 09:42 135 16.1
2020-Apr-06 09:32 135 15.6
2020-Apr-06 09:22 135 15.6
2020-Apr-06 09:12 135 15.6
2020-Apr-06 09:02 135 15.6
2020-Apr-06 08:52 135 15.6
2020-Apr-06 08:42 135 0 gusting 1 15.6
2020-Apr-06 08:32 135 15.6
2020-Apr-06 08:22 135 15.6
2020-Apr-06 08:12 135 15.6
2020-Apr-06 08:02 135 16.1
2020-Apr-06 07:52 135 0 gusting 1 16.7
2020-Apr-06 07:42 135 16.7
2020-Apr-06 07:32 135 1 gusting 3 17.2
2020-Apr-06 07:22 045 16.7
2020-Apr-06 07:11 090 17.2
2020-Apr-06 07:01 090 0 gusting 1 16.7
2020-Apr-06 06:51 045 16.7
2020-Apr-06 06:41 045 16.7
2020-Apr-06 06:31 16.7
2020-Apr-06 06:21 16.7
2020-Apr-06 06:11 045 17.2
2020-Apr-06 06:01 045 17.2
2020-Apr-06 05:51 045 17.2
2020-Apr-06 05:41 045 17.2
2020-Apr-06 05:31 045 17.2
2020-Apr-06 05:21 045 17.2
2020-Apr-06 05:11 135 16.7
2020-Apr-06 05:01 135 16.7
2020-Apr-06 04:51 135 17.2
2020-Apr-06 04:41 135 17.2
2020-Apr-06 04:31 135 17.2
2020-Apr-06 04:21 135 17.8
2020-Apr-06 04:11 135 17.8
2020-Apr-06 04:01 135 18.3
2020-Apr-06 03:51 135 18.3
2020-Apr-06 03:41 135 18.3
2020-Apr-06 03:31 135 18.9
2020-Apr-06 03:21 135 18.9
2020-Apr-06 03:10 135 19.4
2020-Apr-06 03:00 135 19.4
2020-Apr-06 02:50 090 20.0
2020-Apr-06 02:40 180 1 gusting 4 20.0
2020-Apr-06 02:30 135 2 gusting 6 20.0
2020-Apr-06 02:20 135 1 gusting 2 19.4
2020-Apr-06 02:10 135 1 gusting 1 19.4
2020-Apr-06 02:00 135 0 gusting 3 20.0
2020-Apr-06 01:50 090 0 gusting 2 20.0
2020-Apr-06 01:40 135 1 gusting 4 20.6
2020-Apr-06 01:30 135 1 gusting 3 20.6
2020-Apr-06 01:20 090 2 gusting 6 20.6
2020-Apr-06 01:10 135 4 gusting 6 21.1
2020-Apr-06 01:00 113 3 gusting 7 21.1
2020-Apr-06 00:50 135 2 gusting 6 21.1
2020-Apr-06 00:40 135 3 gusting 6 21.1
2020-Apr-06 00:30 135 2 gusting 5 21.7
2020-Apr-06 00:20 135 1 gusting 6 21.7
2020-Apr-06 00:10 135 2 gusting 5 22.2
2020-Apr-06 00:00 135 3 gusting 6 22.2
2020-Apr-05 23:50 090 3 gusting 9 22.8
2020-Apr-05 23:40 135 6 gusting 8 22.8
2020-Apr-05 23:29 135 3 gusting 8 23.3
2020-Apr-05 23:20 045 6 gusting 9 23.9
2020-Apr-05 23:09 113 6 gusting 9 24.4
2020-Apr-05 22:59 090 6 gusting 10 24.4
2020-Apr-05 22:49 135 6 gusting 9 24.4
2020-Apr-05 22:39 135 8 gusting 11 24.4
2020-Apr-05 22:29 135 4 gusting 11 25.0
2020-Apr-05 22:19 135 6 gusting 10 25.0
2020-Apr-05 22:09 135 7 gusting 13 25.0
2020-Apr-05 21:59 090 6 gusting 11 25.0
2020-Apr-05 21:49 090 6 gusting 12 25.6
2020-Apr-05 21:39 135 8 gusting 11 25.0
2020-Apr-05 21:29 090 6 gusting 9 26.1
2020-Apr-05 21:19 090 5 gusting 11 25.6
2020-Apr-05 21:09 135 9 gusting 11 25.0
2020-Apr-05 20:59 135 6 gusting 13 25.6
2020-Apr-05 20:49 090 7 gusting 9 25.0
2020-Apr-05 20:39 135 6 gusting 13 25.0
2020-Apr-05 20:29 090 5 gusting 9 25.0
2020-Apr-05 20:19 090 6 gusting 16 25.0
2020-Apr-05 20:09 090 8 gusting 13 25.0
2020-Apr-05 19:59 090 6 gusting 13 25.0
2020-Apr-05 19:48 090 7 gusting 13 25.0
2020-Apr-05 19:38 090 4 gusting 11 24.4
2020-Apr-05 19:28 045 5 gusting 13 23.9
2020-Apr-05 19:18 135 6 gusting 13 24.4
2020-Apr-05 19:08 135 4 gusting 8 24.4
2020-Apr-05 18:58 135 4 gusting 10 24.4
2020-Apr-05 18:48 135 6 gusting 11 24.4
2020-Apr-05 18:38 135 3 gusting 8 23.9
2020-Apr-05 18:28 090 5 gusting 8 23.3
2020-Apr-05 18:18 090 8 gusting 12 23.3
2020-Apr-05 18:08 090 6 gusting 13 23.3
2020-Apr-05 17:58 090 6 gusting 11 23.9
2020-Apr-05 17:48 090 6 gusting 13 23.3
2020-Apr-05 17:38 113 9 gusting 13 23.9
2020-Apr-05 17:28 090 5 gusting 13 23.9
2020-Apr-05 17:18 090 6 gusting 14 23.9
2020-Apr-05 17:08 068 6 gusting 13 23.3
2020-Apr-05 16:58 090 8 gusting 13 23.3
2020-Apr-05 16:48 135 7 gusting 15 22.8
2020-Apr-05 16:38 045 7 gusting 13 23.3
2020-Apr-05 16:28 090 8 gusting 13 22.8
2020-Apr-05 16:18 090 9 gusting 14 23.3
2020-Apr-05 16:08 090 6 gusting 14 22.8
2020-Apr-05 15:57 045 12 gusting 14 22.8
2020-Apr-05 15:47 045 6 gusting 13 22.2
2020-Apr-05 15:37 090 9 gusting 12 22.2
2020-Apr-05 15:27 090 9 gusting 14 22.2
2020-Apr-05 15:17 090 9 gusting 11 22.2
2020-Apr-05 15:07 045 6 gusting 13 21.7
2020-Apr-05 14:57 090 6 gusting 13 21.7
2020-Apr-05 14:47 21.7
2020-Apr-05 14:37 023 6 gusting 9 21.1
2020-Apr-05 14:27 045 3 gusting 8 20.6
2020-Apr-05 14:17 20.0
2020-Apr-05 14:07 18.9
2020-Apr-05 13:57 045 3 gusting 5 18.9
2020-Apr-05 13:47 18.3
2020-Apr-05 13:37 045 2 gusting 3 18.3
2020-Apr-05 13:27 045 1 gusting 3 18.9
2020-Apr-05 13:17 045 3 gusting 4 17.8
2020-Apr-05 13:07 045 16.1
2020-Apr-05 12:57 045 15.6
2020-Apr-05 12:47 045 0 gusting 1 15.6
2020-Apr-05 12:37 045 1 gusting 1 15.0
2020-Apr-05 12:27 15.6
2020-Apr-05 12:17 045 0 gusting 1 14.4
2020-Apr-05 12:06 14.4
2020-Apr-05 11:56 14.4
2020-Apr-05 11:46 045 0 gusting 2 14.4
2020-Apr-05 11:36 14.4
2020-Apr-05 11:26 045 1 gusting 1 14.4
2020-Apr-05 11:16 15.0
2020-Apr-05 11:06 15.0
2020-Apr-05 10:56 15.0
2020-Apr-05 10:46 15.6
2020-Apr-05 10:36 045 1 gusting 5 15.6
2020-Apr-05 10:26 045 1 gusting 5 15.6
2020-Apr-05 10:16 16.1
2020-Apr-05 10:06 135 2 gusting 3 16.1
2020-Apr-05 09:56 135 3 gusting 4 16.1
2020-Apr-05 09:46 135 2 gusting 4 16.1
2020-Apr-05 09:36 135 3 gusting 4 16.1
2020-Apr-05 09:26 135 1 gusting 4 16.1
2020-Apr-05 09:16 135 2 gusting 6 15.6
2020-Apr-05 09:06 135 4 gusting 6 15.6
2020-Apr-05 08:56 135 15.6
2020-Apr-05 08:46 135 1 gusting 2 15.6
2020-Apr-05 08:36 135 15.6
2020-Apr-05 08:26 135 1 gusting 1 15.6
2020-Apr-05 08:16 135 15.6
2020-Apr-05 08:05 135 1 gusting 2 15.6
2020-Apr-05 04:30 045 1 gusting 2 15.0
2020-Apr-05 04:20 15.0
2020-Apr-05 04:10 15.0
2020-Apr-05 04:00 045 1 gusting 3 15.0
2020-Apr-05 03:50 15.0
2020-Apr-05 03:40 045 1 gusting 2 15.0
2020-Apr-05 03:30 135 15.0
2020-Apr-05 03:19 135 15.0
2020-Apr-05 03:09 090 1 gusting 2 15.0
2020-Apr-05 03:00 135 1 gusting 4 15.0
2020-Apr-05 02:50 045 3 gusting 5 15.0
2020-Apr-05 02:39 045 3 gusting 6 15.0
2020-Apr-05 02:29 135 1 gusting 5 14.4
2020-Apr-05 02:19 135 3 gusting 6 14.4
2020-Apr-05 02:09 135 3 gusting 6 14.4
2020-Apr-05 01:59 068 4 gusting 8 14.4
2020-Apr-05 01:49 090 4 gusting 6 14.4
2020-Apr-05 01:39 135 2 gusting 6 13.9
2020-Apr-05 01:29 090 3 gusting 6 13.9
2020-Apr-05 01:19 135 4 gusting 6 14.4
2020-Apr-05 01:09 090 1 gusting 5 13.9
2020-Apr-05 00:59 135 3 gusting 6 14.4
2020-Apr-05 00:49 135 5 gusting 6 14.4
2020-Apr-05 00:39 135 3 gusting 5 14.4
2020-Apr-05 00:29 135 2 gusting 3 15.0
2020-Apr-05 00:19 135 1 gusting 3 15.0
2020-Apr-05 00:09 135 15.6
2020-Apr-04 23:59 225 1 gusting 4 16.1
2020-Apr-04 23:49 135 0 gusting 1 16.1
2020-Apr-04 23:39 135 16.1
2020-Apr-04 23:28 135 1 gusting 4 16.1
2020-Apr-04 23:18 135 3 gusting 6 16.7
2020-Apr-04 23:08 135 3 gusting 6 16.7
2020-Apr-04 22:58 135 3 gusting 5 16.7
2020-Apr-04 22:48 135 1 gusting 4 17.2
2020-Apr-04 22:38 135 2 gusting 5 17.2
2020-Apr-04 22:28 180 1 gusting 3 17.2
2020-Apr-04 22:18 180 1 gusting 5 17.2
2020-Apr-04 22:08 180 3 gusting 6 17.8
2020-Apr-04 21:58 180 4 17.8
2020-Apr-04 21:52 180 2 gusting 6 17.8
2020-Apr-04 21:42 180 1 gusting 4 17.8
2020-Apr-04 21:32 180 1 gusting 6 17.8
2020-Apr-04 21:22 180 3 gusting 6 17.8
2020-Apr-04 21:12 180 4 gusting 6 18.3
2020-Apr-04 21:02 180 4 gusting 6 18.3
2020-Apr-04 20:52 135 5 gusting 6 18.9
2020-Apr-04 20:42 135 4 gusting 7 18.9
2020-Apr-04 20:32 135 4 gusting 7 19.4
2020-Apr-04 20:22 135 3 gusting 6 19.4
2020-Apr-04 20:12 135 4 gusting 11 19.4
2020-Apr-04 20:02 135 4 gusting 9 20.0
2020-Apr-04 19:52 135 5 gusting 8 20.0
2020-Apr-04 19:42 135 6 gusting 7 20.0
2020-Apr-04 19:32 135 3 gusting 8 20.6
2020-Apr-04 19:22 090 2 gusting 8 21.1
2020-Apr-04 19:12 090 2 gusting 5 21.1
2020-Apr-04 19:02 135 3 gusting 9 21.1
2020-Apr-04 18:52 045 5 gusting 6 21.1
2020-Apr-04 18:41 090 2 gusting 5 20.6
2020-Apr-04 18:32 090 2 gusting 7 20.6
2020-Apr-04 18:21 180 6 gusting 10 20.6
2020-Apr-04 18:11 090 1 gusting 6 20.0
2020-Apr-04 18:01 090 4 gusting 7 20.6